Total_Precipitation_Accumulation
0.55 0.47 0.62 0.63 0.53 0.58 0.79 0.66 0.56 0.29 0.21 0.21 0.21 0.22 0.19 0.19 0.17 0.19 0.23 0.26 0.28 0.30 0.30 0.30 0.31 0.33 0.33 0.35 0.41 0.46 0.50 0.51 0.52 0.55 0.58 0.60 0.59 0.59 0.59 0.62 0.62 0.64 0.63 0.63
0.53 0.44 0.55 0.57 0.47 0.45 0.43 0.38 0.35 0.26 0.25 0.16 0.16 0.16 0.15 0.15 0.13 0.13 0.16 0.18 0.19 0.22 0.22 0.22 0.24 0.29 0.30 0.30 0.36 0.39 0.44 0.47 0.45 0.44 0.46 0.53 0.59 0.59 0.59 0.61 0.64 0.65 0.69 0.72
0.57 0.40 0.50 0.58 0.43 0.34 0.29 0.24 0.25 0.30 0.24 0.14 0.16 0.17 0.17 0.14 0.12 0.10 0.10 0.11 0.13 0.15 0.15 0.18 0.23 0.25 0.24 0.27 0.33 0.35 0.39 0.47 0.48 0.46 0.47 0.49 0.57 0.62 0.65 0.68 0.71 0.75 0.79 0.87
0.55 0.45 0.56 0.43 0.24 0.18 0.16 0.15 0.15 0.17 0.14 0.13 0.18 0.18 0.14 0.10 0.09 0.09 0.07 0.08 0.08 0.09 0.10 0.14 0.18 0.20 0.21 0.23 0.26 0.29 0.30 0.39 0.48 0.52 0.59 0.63 0.68 0.71 0.73 0.76 0.83 0.92 0.98 1.00
0.44 0.36 0.27 0.16 0.12 0.09 0.11 0.12 0.08 0.09 0.08 0.08 0.12 0.20 0.17 0.11 0.07 0.08 0.07 0.07 0.09 0.10 0.12 0.13 0.14 0.17 0.19 0.22 0.27 0.31 0.34 0.40 0.48 0.55 0.62 0.69 0.78 0.82 0.85 0.89 0.92 0.92 0.89 0.84
0.35 0.29 0.13 0.07 0.04 0.03 0.07 0.13 0.07 0.07 0.06 0.05 0.07 0.13 0.17 0.15 0.11 0.07 0.08 0.09 0.09 0.11 0.13 0.15 0.16 0.20 0.25 0.29 0.34 0.41 0.48 0.54 0.62 0.69 0.72 0.72 0.78 0.82 0.81 0.76 0.71 0.61 0.51 0.43
0.30 0.25 0.06 0.02 0.01 0.02 0.10 0.13 0.05 0.06 0.06 0.05 0.05 0.05 0.06 0.07 0.09 0.10 0.10 0.11 0.12 0.14 0.17 0.19 0.22 0.30 0.38 0.44 0.50 0.56 0.59 0.62 0.68 0.73 0.73 0.69 0.62 0.53 0.44 0.38 0.34 0.30 0.26 0.22
0.17 0.20 0.07 0.01 0.02 0.05 0.06 0.04 0.03 0.04 0.05 0.05 0.04 0.04 0.03 0.03 0.04 0.07 0.11 0.15 0.18 0.20 0.22 0.25 0.29 0.35 0.41 0.47 0.49 0.49 0.50 0.49 0.46 0.41 0.35 0.31 0.29 0.25 0.22 0.19 0.17 0.16 0.17 0.18
0.08 0.08 0.04 0.02 0.03 0.03 0.03 0.03 0.02 0.03 0.03 0.03 0.03 0.03 0.03 0.02 0.02 0.03 0.05 0.08 0.11 0.14 0.15 0.17 0.18 0.22 0.27 0.27 0.23 0.21 0.20 0.18 0.15 0.13 0.11 0.11 0.12 0.13 0.13 0.14 0.15 0.16 0.17 0.18
0.05 0.03 0.02 0.02 0.02 0.02 0.02 0.03 0.02 0.02 0.02 0.03 0.03 0.04 0.04 0.03 0.03 0.03 0.03 0.04 0.06 0.07 0.08 0.08 0.09 0.11 0.13 0.13 0.10 0.09 0.09 0.09 0.09 0.09 0.09 0.09 0.09 0.11 0.12 0.13 0.15 0.17 0.19 0.19
0.06 0.04 0.04 0.04 0.03 0.02 0.02 0.02 0.02 0.02 0.02 0.03 0.04 0.03 0.03 0.02 0.02 0.02 0.02 0.03 0.04 0.05 0.05 0.06 0.07 0.06 0.06 0.07 0.07 0.07 0.08 0.09 0.09 0.09 0.09 0.10 0.10 0.11 0.14 0.16 0.19 0.22 0.21 0.21
0.08 0.04 0.05 0.04 0.02 0.02 0.03 0.03 0.03 0.03 0.02 0.02 0.02 0.02 0.02 0.03 0.03 0.03 0.03 0.03 0.04 0.05 0.07 0.08 0.08 0.08 0.07 0.07 0.08 0.09 0.10 0.10 0.11 0.13 0.13 0.14 0.14 0.13 0.15 0.16 0.19 0.21 0.21 0.21
0.05 0.04 0.04 0.03 0.02 0.03 0.04 0.05 0.05 0.04 0.04 0.03 0.02 0.03 0.03 0.04 0.04 0.04 0.05 0.05 0.05 0.06 0.07 0.08 0.08 0.08 0.08 0.08 0.08 0.09 0.11 0.12 0.12 0.12 0.13 0.15 0.17 0.19 0.20 0.20 0.22 0.22 0.22 0.22
0.03 0.04 0.04 0.03 0.03 0.02 0.02 0.03 0.03 0.04 0.04 0.04 0.03 0.03 0.03 0.04 0.04 0.05 0.05 0.06 0.06 0.07 0.08 0.09 0.08 0.08 0.08 0.08 0.08 0.09 0.11 0.13 0.15 0.14 0.14 0.15 0.17 0.19 0.20 0.21 0.22 0.20 0.21 0.23
0.02 0.03 0.03 0.03 0.04 0.03 0.02 0.02 0.03 0.03 0.04 0.04 0.04 0.04 0.04 0.04 0.05 0.05 0.05 0.06 0.06 0.07 0.08 0.09 0.09 0.08 0.08 0.07 0.08 0.09 0.10 0.11 0.13 0.15 0.17 0.18 0.19 0.19 0.18 0.18 0.18 0.18 0.20 0.22
0.03 0.03 0.03 0.03 0.04 0.03 0.03 0.03 0.03 0.03 0.03 0.03 0.03 0.03 0.04 0.04 0.04 0.04 0.05 0.06 0.08 0.09 0.09 0.09 0.09 0.09 0.08 0.08 0.08 0.09 0.10 0.14 0.16 0.16 0.17 0.18 0.19 0.19 0.19 0.19 0.19 0.18 0.19 0.20
0.06 0.06 0.05 0.05 0.04 0.04 0.04 0.03 0.04 0.04 0.04 0.04 0.05 0.04 0.04 0.05 0.05 0.05 0.06 0.06 0.08 0.10 0.10 0.10 0.10 0.10 0.10 0.10 0.10 0.11 0.13 0.15 0.19 0.18 0.16 0.16 0.18 0.20 0.21 0.22 0.21 0.20 0.19 0.24
0.09 0.08 0.08 0.07 0.06 0.06 0.06 0.06 0.05 0.05 0.06 0.05 0.06 0.06 0.06 0.06 0.06 0.06 0.06 0.06 0.07 0.08 0.09 0.10 0.12 0.13 0.13 0.13 0.14 0.14 0.15 0.17 0.18 0.18 0.18 0.19 0.21 0.21 0.22 0.23 0.22 0.21 0.20 0.24
0.10 0.09 0.09 0.08 0.09 0.10 0.10 0.10 0.10 0.09 0.08 0.07 0.07 0.07 0.07 0.07 0.07 0.07 0.07 0.06 0.06 0.07 0.08 0.10 0.13 0.13 0.13 0.16 0.19 0.18 0.18 0.19 0.19 0.20 0.20 0.22 0.23 0.21 0.20 0.21 0.21 0.21 0.22 0.23
0.12 0.13 0.12 0.12 0.12 0.13 0.12 0.11 0.10 0.10 0.08 0.08 0.08 0.08 0.07 0.07 0.07 0.07 0.07 0.07 0.08 0.08 0.09 0.10 0.11 0.11 0.12 0.13 0.17 0.16 0.17 0.18 0.19 0.20 0.20 0.21 0.21 0.20 0.20 0.20 0.21 0.21 0.22 0.23
0.12 0.13 0.13 0.14 0.15 0.14 0.14 0.13 0.12 0.12 0.12 0.11 0.12 0.11 0.10 0.08 0.07 0.06 0.07 0.08 0.08 0.09 0.09 0.09 0.09 0.09 0.10 0.12 0.15 0.14 0.15 0.16 0.17 0.19 0.20 0.21 0.21 0.21 0.21 0.21 0.21 0.22 0.22 0.23
0.14 0.14 0.14 0.12 0.12 0.12 0.12 0.11 0.11 0.12 0.12 0.13 0.12 0.11 0.10 0.09 0.08 0.07 0.07 0.08 0.09 0.10 0.09 0.08 0.08 0.10 0.12 0.13 0.12 0.12 0.13 0.15 0.17 0.18 0.19 0.20 0.21 0.21 0.20 0.20 0.20 0.20 0.20 0.21
0.15 0.15 0.15 0.15 0.14 0.13 0.12 0.12 0.12 0.12 0.12 0.12 0.11 0.11 0.10 0.09 0.09 0.08 0.09 0.09 0.08 0.09 0.08 0.07 0.09 0.12 0.13 0.12 0.11 0.12 0.14 0.15 0.16 0.17 0.18 0.19 0.20 0.20 0.20 0.19 0.19 0.18 0.18 0.17
0.13 0.14 0.14 0.12 0.11 0.10 0.11 0.11 0.12 0.13 0.13 0.12 0.12 0.12 0.11 0.10 0.09 0.09 0.09 0.10 0.10 0.09 0.08 0.09 0.11 0.12 0.12 0.11 0.11 0.13 0.14 0.15 0.16 0.16 0.17 0.17 0.17 0.18 0.18 0.18 0.17 0.16 0.15 0.15
0.09 0.09 0.10 0.10 0.10 0.09 0.09 0.10 0.11 0.12 0.13 0.12 0.12 0.12 0.11 0.11 0.11 0.11 0.10 0.09 0.09 0.10 0.10 0.11 0.12 0.12 0.12 0.12 0.13 0.14 0.14 0.15 0.16 0.16 0.16 0.15 0.15 0.15 0.15 0.15 0.15 0.15 0.14 0.13
0.05 0.05 0.05 0.06 0.07 0.07 0.07 0.08 0.09 0.10 0.10 0.10 0.10 0.11 0.11 0.10 0.10 0.10 0.10 0.10 0.10 0.11 0.11 0.11 0.11 0.12 0.13 0.13 0.13 0.13 0.13 0.14 0.15 0.14 0.14 0.13 0.14 0.14 0.13 0.13 0.13 0.13 0.13 0.12
0.02 0.03 0.03 0.03 0.04 0.04 0.05 0.06 0.07 0.08 0.09 0.10 0.12 0.12 0.11 0.10 0.09 0.09 0.10 0.10 0.11 0.12 0.12 0.12 0.13 0.13 0.13 0.13 0.13 0.12 0.12 0.13 0.12 0.13 0.13 0.13 0.13 0.13 0.12 0.12 0.12 0.12 0.12 0.12